Location: ?????????
(53.2086°N, 54.0693°E)
Time: 21:54:08
(UTC+00:00)

CZ-4B R/B - Pass Details

Date: 08 December 2019
Orbit: 392 x 468 km, 97.6° (Epoch: 17 January)

Event Time Altitude Azimuth Distance (km) Brightness Sun altitude
Exits shadow 12:52:13 -1° 13° (NNE) 2,604 4.9 -6.5°
Rises 12:52:24 0° 13° (NNE) 2,527 4.8 -6.5°
Reaches altitude 10° 12:54:28 10° 13° (NNE) 1,646 3.9 -6.8°
Maximum altitude 12:58:00 85° 288° (WNW) 479 1.6 -7.2°
Drops below altitude 10° 13:01:30 10° 197° (SSW) 1,622 4.9 -7.7°
Sets 13:03:32 0° 197° (SSW) 2,486 5.9 -8.0°
